Regional Weather Roundup
Issued by NWS Bismarck, ND

Home | Current Version | Previous Version | Text Only | Print | Product List | Glossary On
Versions: 1 2 3 4 5 6 7 8 9 10 11 12 13 14 15 16 17 18 19 20 21 22 23 24 25 26 27 28 29 30 31 32 33 34 35 36 37 38 39 40 41 42 43 44 45 46 47 48 49 50
000
ASUS43 KBIS 200520
RWRBIS

NWR BROADCAST TEXT
NATIONAL WEATHER SERVICE BISMARCK ND
1200 AM CDT WED AUG 20 2014

NOTE: "FAIR" INDICATES FEW OR NO CLOUDS BELOW 12,000 FEET WITH NO
SIGNIFICANT WEATHER AND/OR OBSTRUCTIONS TO VISIBILITY.


CITY           SKY/WX    TMP DP  RH WIND       PRES   REMARKS
WILLISTON      CLEAR     76  60  57 SE5       29.64F
MINOT          CLEAR     67  60  78 SE5       29.70S
MINOT AFB      CLEAR     64  64  97 SE6       29.69F
BISMARCK       PTCLDY    69  62  78 E6        29.73S
DICKINSON      PTCLDY    68  58  70 SE7       29.69F
GARRISON         N/A     68  65  90 S6        29.71F
HETTINGER ARPT PTCLDY    70  57  63 SE8       29.73F
JAMESTOWN      PTCLDY    67  62  84 S3        29.76S
BEACH            N/A     64  59  82 SE9       29.69F
CARRINGTON     FAIR      64  64 100 S7        29.77S
CROSBY         FAIR      72  61  68 SE15G21   29.64F
HARVEY         FAIR      66  64  94 SE8       29.74S
HAZEN          FAIR      64  61  88 N5        29.71S
LINTON         FAIR      66  64  94 SE10      29.75R
MANDAN         FAIR      70  61  73 SE8       29.74S
STANLEY        FAIR      66  66 100 SE9       29.70F
TIOGA          FAIR      64  64 100 E7        29.71F
WATFORD CITY   FAIR      70  61  73 SE12      29.64S
$$

CITY           SKY/WX    TMP DP  RH WIND       PRES   REMARKS
GRAND FORKS    CLEAR     67  63  87 SE6       29.75S
GRAND FORKS AF CLEAR     67  66  99 SE5       29.76S
DEVILS LAKE    CLEAR     70  63  78 SE10      29.74R
FARGO          CLEAR     68  64  87 SE6       29.77R
CANDO          FAIR      64  64 100 SE7       29.75S
CAVALIER       FAIR      66  63  88 SE3       29.75S
GRAFTON        FAIR      66  64  94 SE7       29.75S
GWINNER        CLEAR     68  68 100 SE6       29.79S
LANGDON        FAIR      64  63  94 SE8       29.77S
ROLLA          CLOUDY    57  57 100 CALM      29.77R
WALHALLA         N/A     66  66 100 SE3         N/A
$$

CITY           SKY/WX    TMP DP  RH WIND       PRES   REMARKS
ABERDEEN       PTCLDY    65  62  90 SE8       29.77S
MOBRIDGE       PTCLDY    71  63  75 SE12      29.72S
BUFFALO          N/A     74  57  55 SE20      29.66F
RAPID CITY     PTCLDY    66  60  81 SW3       29.75S
GLASGOW        PTCLDY    78  44  29 CALM      29.59F
SIDNEY         PTCLDY    68  61  77 CALM      29.64F
WOLF POINT     PTCLDY    66  46  48 W5        29.58F
GLENDIVE       MOCLDY    73  57  56 S6        29.66S
MILES CITY     CLOUDY    82  45  27 S3        29.64S
BAKER          PTCLDY    66  56  70 SE10      29.71S
$$

CITY           SKY/WX    TMP DP  RH WIND       PRES   REMARKS
BILLINGS       CLOUDY    73  44  35 SW10      29.74F
GREAT FALLS    MOCLDY    65  46  50 CALM      29.76S
REGINA         TSTM      68  63  83 E10       29.64S
ESTEVAN        MOCLDY    68  61  77 SE6       29.68S
$$



USA.gov is the U.S. government's official web portal to all federal, state and local government web resources and services.